EW3204 Weather Reports


time (UTC)temp
F
wind
direction
speed
knots
gust
knots
rain 1hr
in
rain 24hr
in
rain mn
in
humidity
%
barometer
mb
20260901221646 100 38 5.2 0.0 0.00 0.00 0.00 13 1006.5
20260901220043 98 157 3.5 0.0 0.00 0.00 0.00 14 1006.6
20260901214555 99 236 2.6 0.0 0.00 0.00 0.00 14 1007.0
20260901213039 99 356 4.3 0.0 0.00 0.00 0.00 13 1007.2
20260901211538 99 225 2.6 0.0 0.00 0.00 0.00 13 1007.3
20260901210037 99 358 3.5 0.0 0.00 0.00 0.00 13 1007.7
20260901204538 99 275 4.3 0.0 0.00 0.00 0.00 13 1007.8
20260901203058 99 340 3.5 0.0 0.00 0.00 0.00 13 1007.9
20260901201531 98 285 2.6 0.0 0.00 0.00 0.00 13 1008.1
20260901200101 97 27 3.5 0.0 0.00 0.00 0.00 13 1008.4
20260901194527 96 17 3.5 0.0 0.00 0.00 0.00 13 1008.5
20260901193027 96 340 2.6 0.0 0.00 0.00 0.00 14 1008.8
20260901191535 95 50 3.5 0.0 0.00 0.00 0.00 14 1009.0
20260901190025 95 3 5.2 0.0 0.00 0.00 0.00 14 1009.2
20260901184523 94 66 1.7 0.0 0.00 0.00 0.00 15 1009.4
20260901183029 93 42 4.3 0.0 0.00 0.00 0.00 16 1009.5
20260901181519 93 13 3.5 0.0 0.00 0.00 0.00 16 1009.6
20260901180018 93 252 2.6 0.0 0.00 0.00 0.00 16 1009.7
20260901174517 92 310 1.7 0.0 0.00 0.00 0.00 15 1009.8
20260901171502 91 342 2.6 0.0 0.00 0.00 0.00 16 1009.8
20260901170002 90 16 2.6 0.0 0.00 0.00 0.00 15 1009.7
20260901164558 90 6 1.7 0.0 0.00 0.00 0.00 14 1009.7
20260901163101 90 56 0.9 0.0 0.00 0.00 0.00 13 1009.6
20260901161614 89 86 0.9 0.0 0.00 0.00 0.00 13 1009.4
20260901160054 89 92 0.9 0.0 0.00 0.00 0.00 12 1009.4
20260901154613 87 300 1.7 0.0 0.00 0.00 0.00 12 1009.4
20260901153015 86 211 0.9 0.0 0.00 0.00 0.00 13 1009.4
20260901151542 84 211 0.9 0.0 0.00 0.00 0.00 15 1009.4
20260901150051 82 211 1.7 0.0 0.00 0.00 0.00 17 1009.3
20260901144543 80 211 0.9 0.0 0.00 0.00 0.00 19 1009.2
20260901143040 80 211 0.9 0.0 0.00 0.00 0.00 20 1009.2
20260901141546 79 211 1.7 0.0 0.00 0.00 0.00 20 1009.0
20260901140040 78 197 0.9 0.0 0.00 0.00 0.00 21 1009.0
20260901134535 78 200 3.5 0.0 0.00 0.00 0.00 21 1008.9
20260901133033 77 207 3.5 0.0 0.00 0.00 0.00 22 1008.7
20260901131532 77 196 1.7 0.0 0.00 0.00 0.00 23 1008.5
20260901130032 77 196 1.7 0.0 0.00 0.00 0.00 24 1008.6
20260901124538 77 196 1.7 0.0 0.00 0.00 0.00 24 1008.7
20260901123026 77 196 1.7 0.0 0.00 0.00 0.00 24 1008.3
20260901121525 78 196 0.9 0.0 0.00 0.00 0.00 24 1008.3
20260901120022 79 196 0.9 0.0 0.00 0.00 0.00 23 1008.2
20260901114521 79 183 1.7 0.0 0.00 0.00 0.00 22 1008.1
20260901113021 78 206 1.7 0.0 0.00 0.00 0.00 23 1007.9
20260901111518 80 206 1.7 0.0 0.00 0.00 0.00 22 1007.9
20260901110016 81 206 2.6 0.0 0.00 0.00 0.00 21 1007.9
20260901104515 81 289 0.0 0.0 0.00 0.00 0.00 18 1007.8
20260901103014 81 286 2.6 0.0 0.00 0.00 0.00 17 1007.9
20260901101511 82 332 1.7 0.0 0.00 0.00 0.00 17 1007.9
20260901100010 83 285 2.6 0.0 0.00 0.00 0.00 17 1008.1
20260901094516 83 309 2.6 0.0 0.00 0.00 0.00 16 1008.1
20260901093006 83 292 1.7 0.0 0.00 0.00 0.00 20 1008.1
20260901091506 83 337 1.7 0.0 0.00 0.00 0.00 23 1007.9
20260901090006 84 210 3.5 0.0 0.00 0.00 0.00 26 1007.7
20260901084502 85 298 10.4 0.0 0.00 0.00 0.00 21 1007.6
20260901083106 85 284 10.4 0.0 0.00 0.00 0.00 23 1007.6
20260901081558 85 310 6.1 0.0 0.00 0.00 0.00 26 1007.6
20260901074555 85 304 6.1 0.0 0.00 0.00 0.00 30 1007.6
20260901073052 84 275 2.6 0.0 0.00 0.00 0.00 29 1007.6
20260901071550 84 188 1.7 0.0 0.00 0.00 0.00 29 1007.5
20260901070050 84 242 1.7 0.0 0.00 0.00 0.00 28 1007.4
20260901064550 83 65 0.9 0.0 0.00 0.00 0.00 29 1007.4
20260901063054 84 65 0.9 0.0 0.00 0.00 0.00 29 1007.4
20260901061545 84 65 1.7 0.0 0.00 0.00 0.00 29 1007.4
20260901060045 85 65 0.0 0.0 0.00 0.00 0.00 28 1007.3
20260901054545 85 65 0.0 0.0 0.00 0.00 0.00 28 1007.4
20260901053052 85 65 0.9 0.0 0.00 0.00 0.00 27 1007.5
20260901051546 85 146 1.7 0.0 0.00 0.00 0.00 27 1007.4
20260901050044 86 141 2.6 0.0 0.00 0.00 0.00 26 1007.3
20260901044543 86 265 5.2 0.0 0.00 0.00 0.00 24 1007.2
20260901043043 86 294 6.1 0.0 0.00 0.00 0.00 24 1007.1
20260901041542 86 316 3.5 0.0 0.00 0.00 0.00 27 1007.0
20260901040042 87 340 3.5 0.0 0.00 0.00 0.00 27 1007.0
20260901034542 88 228 3.5 0.0 0.00 0.00 0.00 29 1006.9
20260901033044 88 245 2.6 0.0 0.00 0.00 0.00 30 1006.7
20260901031540 88 240 0.9 0.0 0.00 0.00 0.00 29 1006.5
20260901030039 89 295 2.6 0.0 0.00 0.00 0.00 29 1006.3
20260901024539 89 283 7.0 0.0 0.00 0.00 0.00 29 1006.1
20260901023038 89 283 9.6 0.0 0.00 0.00 0.00 29 1005.9
20260901021538 90 285 11.3 0.0 0.00 0.00 0.00 29 1005.8
20260901020037 91 235 8.7 0.0 0.00 0.00 0.00 28 1005.6
20260901014536 93 219 3.5 0.0 0.00 0.00 0.00 26 1005.4
20260901013036 95 242 3.5 0.0 0.00 0.00 0.00 24 1005.2
20260901011621 96 260 5.2 0.0 0.00 0.00 0.00 20 1005.0
20260901010020 96 276 7.8 0.0 0.00 0.00 0.00 22 1004.7
20260901004516 97 277 9.6 0.0 0.00 0.00 0.00 22 1004.6
20260901003009 97 251 8.7 0.0 0.00 0.00 0.00 22 1004.5
20260901001513 97 251 8.7 0.0 0.00 0.00 0.00 21 1004.6
20260901000007 98 243 9.6 0.0 0.00 0.00 0.00 20 1004.6
20260831234508 98 225 9.6 0.0 0.00 0.00 0.00 20 1004.6
20260831233006 99 222 8.7 0.0 0.00 0.00 0.00 21 1004.6
20260831231505 100 244 12.2 0.0 0.00 0.00 0.00 20 1004.5
20260831230005 99 300 14.8 0.0 0.00 0.00 0.00 20 1004.5
20260831224505 100 300 11.3 0.0 0.00 0.00 0.00 20 1004.6
20260831223003 100 267 11.3 0.0 0.00 0.00 0.00 19 1004.6